Greybull, WY

2:48 PM MST on December 09, 2019 (GMT -0700)
South Big Horn County

Weather History for KGEY - November, 2019

Change the Weather History Date:

Friday, November 15, 2019

  Actual Average Record
Temperature  
Mean Temperature 36 °F 31 °F  
Max Temperature 47 °F 44 °F 66 °F (2016)
Min Temperature 26 °F 18 °F -21 °F (2014)
Degree Days  
Heating Degree Days 28 34  
Month to date heating degree days 496 448  
Since 1 July heating degree days 1494 1270  
Cooling Degree Days 0 0  
Month to date cooling degree days 0 0  
Year to date cooling degree days 733 669  
Moisture  
Dew Point 28 °F    
Average Humidity 80    
Maximum Humidity 92    
Minimum Humidity 56    
Precipitation  
Precipitation 0.00 in 0.01 in 0.25 in (1961)
Month to date precipitation 0.11 0.14  
Year to date precipitation 8.04 7.07  
Sea Level Pressure  
Sea Level Pressure 30.12 in    
Wind  
Wind Speed 2 mph ()    
Max Wind Speed 8 mph    
Max Gust Speed 9 mph    
Visibility 10.0 miles    
Events      
T = Trace of Precipitation, MM = Missing Value Source: Averaged Metar Reports

Daily Weather History Graph

Daily Weather History Graph

Search for Another Location

Airport or City:

Astronomy

Nov. 15, 2019 Rise Set
Actual Time 7:08 AM MST 4:44 PM MST
Civil Twilight 6:36 AM MST 5:16 PM MST
Nautical Twilight 6:01 AM MST 5:51 PM MST
Astronomical Twilight 5:27 AM MST 6:25 PM MST
Moon 7:18 PM MST (11/15) 10:12 AM MST (11/15)
Length of Visible Light 10h 39m
Length of Day
9h 36m
Waning Gibbous, 89% of the Moon is Illuminated
Nov 15
Waning Gibbous
Nov 19
Last Quarter
Nov 26
New
Dec 3
First Quarter
Dec 11
Full

Hourly Weather History & Observations

Time (MST) Temp. Windchill Dew Point Humidity Pressure Visibility Wind Dir Wind Speed Gust Speed Precip Events Conditions
12:53 AM 28.0 °F 21.7 °F 25.0 °F 88% 30.18 in 10.0 mi ESE 5.8 mph - N/A   Clear
1:53 AM 28.0 °F 22.8 °F 25.0 °F 88% 30.17 in 10.0 mi SE 4.6 mph - N/A   Clear
2:53 AM 28.9 °F - 26.1 °F 89% 30.17 in 10.0 mi Calm Calm - N/A   Clear
3:53 AM 28.9 °F 22.8 °F 25.0 °F 85% 30.16 in 10.0 mi ESE 5.8 mph - N/A   Clear
4:53 AM 28.9 °F 23.9 °F 25.0 °F 85% 30.17 in 10.0 mi SSE 4.6 mph - N/A   Clear
5:53 AM 28.0 °F - 24.1 °F 85% 30.17 in 10.0 mi Calm Calm - N/A   Clear
6:53 AM 28.0 °F - 24.1 °F 85% 30.18 in 10.0 mi Calm Calm - N/A   Clear
7:53 AM 28.9 °F - 26.1 °F 89% 30.19 in 10.0 mi Calm Calm - N/A   Clear
8:53 AM 30.0 °F 26.5 °F 27.0 °F 88% 30.19 in 10.0 mi West 3.5 mph - N/A   Clear
9:53 AM 33.1 °F - 28.0 °F 82% 30.18 in 10.0 mi Calm Calm - N/A   Clear
10:53 AM 35.1 °F - 28.9 °F 78% 30.19 in 10.0 mi Calm Calm - N/A   Clear
11:53 AM 37.9 °F - 28.9 °F 70% 30.15 in 10.0 mi Calm Calm - N/A   Clear
12:53 PM 41.0 °F 39.0 °F 30.0 °F 65% 30.11 in 10.0 mi SE 3.5 mph - N/A   Clear
1:53 PM 45.0 °F 43.5 °F 30.9 °F 58% 30.08 in 10.0 mi South 3.5 mph - N/A   Clear
2:53 PM 45.0 °F 43.5 °F 30.0 °F 56% 30.07 in 10.0 mi SW 3.5 mph - N/A   Clear
3:53 PM 42.1 °F 39.2 °F 32.0 °F 67% 30.06 in 10.0 mi NNW 4.6 mph - N/A   Partly Cloudy
4:53 PM 37.9 °F - 30.9 °F 76% 30.06 in 10.0 mi Calm Calm - N/A   Clear
5:53 PM 37.0 °F - 30.0 °F 76% 30.07 in 10.0 mi Calm Calm - N/A   Clear
6:53 PM 35.1 °F 32.2 °F 30.0 °F 82% 30.09 in 10.0 mi WNW 3.5 mph - N/A   Clear
7:53 PM 33.1 °F 28.7 °F 28.9 °F 85% 30.08 in 10.0 mi West 4.6 mph - N/A   Clear
8:53 PM 34.0 °F 31.0 °F 28.9 °F 82% 30.08 in 10.0 mi WNW 3.5 mph - N/A   Partly Cloudy
9:53 PM 34.0 °F - 30.0 °F 85% 30.07 in 10.0 mi Calm Calm - N/A   Clear
10:53 PM 34.0 °F - 30.0 °F 85% 30.06 in 10.0 mi Calm Calm - N/A   Scattered Clouds
11:53 PM 33.1 °F - 30.0 °F 89% 30.04 in 10.0 mi Calm Calm - N/A   Scattered Clouds